Location: Caualo
(45.5667°N, 10.8667°E)
Time: 10:44:59
(UTC+00:00)

CZ-4C R/B - Pass Details

Date: 07 June 2020
Orbit: 408 x 493 km, 97.7° (Epoch: 07 July)

Event Time Altitude Azimuth Distance (km) Brightness Sun altitude
Rises 02:09:03 0° 152° (SSE) 2,562 6.5 -11.1°
Reaches altitude 10° 02:11:10 10° 146° (SE) 1,686 5.7 -10.9°
Maximum altitude 02:14:39 45° 72° (ENE) 678 4.3 -10.5°
Drops below altitude 10° 02:18:08 10° 359° (N) 1,688 6.5 -10.0°
Sets 02:20:15 0° 353° (N) 2,567 7.4 -9.8°
